Hourly Data Report for January 08, 2021

STE-ANNE-DE-BELLEVUE 1
QUEBEC
Current Station Operator: ECCC - MSC

45°25'38.000" N
73°55'45.000" W
39.00 m
702FHL8
71377
WVQ

Download Data

Hourly Data (January 2021)
Hourly Data Report for January 8, 2021
TIME
LST
Temp Definition
°C
Dew Point Definition
°C
Rel Hum Definition
%
Precip. Amount Definition
mm

Wind Dir Definition
10's deg

Wind Spd Definition
km/h
Visibility Definition
km
Stn Press Definition
kPa
Hmdx Definition


Wind Chill Definition


Weather Definition


00:00 -6.0 -8.8 81 0.0 26 10   101.83   -10 LegendNANA
01:00 -6.0 -8.6 82 0.0 29 8   101.82   -10 LegendNANA
02:00 -6.7 -9.5 80 0.0 30 11   101.82   -12 LegendNANA
03:00 -7.6 -10.1 82 0.0 28 10   101.81   -12 LegendNANA
04:00 -7.7 -10.2 83 0.0 28 10   101.78   -13 LegendNANA
05:00 -8.7 -10.9 84 0.0 29 8   101.78   -13 LegendNANA
06:00 -9.3 -11.0 88 0.0 28 7   101.77   -13 LegendNANA
07:00 -9.6 -11.5 86 0.0 27 8   101.74   -14 LegendNANA
08:00 -11.0 -12.2 91 0.0 28 8   101.76   -16 LegendNANA
09:00 -9.4 -12.5 78 0.0 28 7   101.76   -13 LegendNANA
10:00 -8.8 -12.7 73 0.0 27 12   101.72   -14 LegendNANA
11:00 -7.9 -13.0 67 0.0 27 14   101.64   -14 LegendNANA
12:00 -7.5 -13.0 65 0.0 25 17   101.51   -14 LegendNANA
13:00 -7.0 -12.9 62 0.0 24 15   101.42   -13 LegendNANA
14:00 -6.1 -12.8 59 0.0 25 15   101.38   -12 LegendNANA
15:00 -6.0 -12.7 59 0.0 24 18   101.34   -12 LegendNANA
16:00 -6.0 -12.7 59 0.0 25 18   101.32   -12 LegendNANA
17:00 -6.7 -12.6 63 0.0 24 16   101.31   -13 LegendNANA
18:00 -7.6 -12.7 67 0.0 24 19   101.34   -15 LegendNANA
19:00 -8.1 -12.9 68 0.0 25 19   101.31   -15 LegendNANA
20:00 -8.6 -13.2 69 0.0 25 14   101.30   -15 LegendNANA
21:00 -9.4 -13.8 71 0.0 25 14   101.28   -16 LegendNANA
22:00 -10.1 -14.2 72 0.0 25 14   101.25   -17 LegendNANA
23:00 -10.1 -13.9 74 0.0 25 8   101.20   -15 LegendNANA

Notes on Data Quality.

Legend

  • E = Estimated
  • M = Missing
  • NA = Not Available*
  • [empty] = Indicates an unobserved value
Date modified: